WT9M-8 Weather Reports


Display with metric or nautical units.
time (UTC)temp
F
wind
direction
speed
MPH
gust
MPH
rain 1hr
in
rain 24hr
in
rain mn
in
humidity
%
barometer
mb
20260904004032 76 59 1.0 2.0 0.00 0.46 0.46 88 1011.0
20260904003028 76 58 1.0 2.0 0.00 0.46 0.46 87 1011.1
20260904002022 78 58 1.0 2.0 0.00 0.46 0.46 87 1011.1
20260904001017 79 58 1.0 1.0 0.00 0.46 0.46 87 1010.9
20260904000031 80 57 1.0 2.0 0.00 0.46 0.46 86 1011.1
20260903235025 80 57 0.0 1.0 0.00 0.46 0.46 86 1011.0
20260903234018 81 57 0.0 2.0 0.00 0.46 0.46 85 1011.0
20260903233033 82 81 0.0 1.0 0.00 0.46 0.46 85 1011.1
20260903232045 82 100 1.0 3.0 0.00 0.46 0.46 85 1010.9
20260903231021 82 93 0.0 2.0 0.00 0.46 0.46 85 1011.3
20260903230036 83 103 1.0 4.0 0.00 0.46 0.46 85 1011.2
20260903225033 83 88 1.0 4.0 0.00 0.46 0.46 85 1011.1
20260903224027 84 77 2.0 7.0 0.00 0.46 0.46 85 1011.0
20260903223044 84 77 1.0 4.0 0.00 0.46 0.46 85 1011.0
20260903222057 84 47 1.0 3.0 0.00 0.46 0.46 86 1011.2
20260903221027 84 78 1.0 2.0 0.00 0.46 0.46 86 1011.3
20260903220023 83 68 0.0 1.0 0.00 0.46 0.46 86 1011.3
20260903215039 83 68 0.0 1.0 0.00 0.46 0.46 86 1011.4
20260903214036 84 84 1.0 4.0 0.00 0.46 0.46 86 1011.1
20260903213033 84 103 2.0 7.0 0.00 0.46 0.46 85 1011.5
20260903212028 85 102 2.0 7.0 0.00 0.46 0.46 87 1011.6
20260903211024 83 62 2.0 4.0 0.00 0.46 0.46 87 1011.5
20260903210018 83 82 2.0 3.0 0.00 0.46 0.46 88 1011.6
20260903205032 82 176 1.0 4.0 0.00 0.46 0.46 88 1011.9
20260903204047 82 184 1.0 3.0 0.00 0.46 0.46 89 1011.7
20260903203022 82 195 0.0 2.0 0.00 0.46 0.46 89 1011.7
20260903202036 82 185 0.0 1.0 0.00 0.46 0.46 89 1011.9
20260903201030 82 108 1.0 3.0 0.00 0.46 0.46 89 1012.1
20260903200044 82 209 0.0 2.0 0.00 0.46 0.46 90 1012.3
20260903195016 82 209 1.0 2.0 0.00 0.46 0.46 90 1012.4
20260903194029 82 33 0.0 1.0 0.00 0.46 0.46 90 1012.2
20260903193021 82 310 1.0 3.0 0.00 0.46 0.46 90 1012.2
20260903192034 82 281 2.0 4.0 0.00 0.46 0.46 90 1012.1
20260903191030 81 301 1.0 2.0 0.00 0.46 0.46 91 1012.0
20260903190024 81 295 2.0 4.0 0.00 0.46 0.46 91 1011.7
20260903185019 80 269 1.0 3.0 0.00 0.46 0.46 91 1011.9
20260903184033 79 210 1.0 2.0 0.00 0.46 0.46 91 1012.0
20260903183029 78 276 1.0 3.0 0.00 0.46 0.46 91 1012.2
20260903182022 77 61 1.0 4.0 0.00 0.46 0.46 92 1012.2
20260903181038 76 298 1.0 3.0 0.00 0.46 0.46 92 1012.1
20260903180033 76 292 0.0 1.0 0.00 0.46 0.46 92 1012.2
20260903175027 76 291 0.0 1.0 0.00 0.46 0.46 92 1012.1
20260903174021 76 288 2.0 3.0 0.00 0.46 0.46 92 1012.1
20260903173055 74 307 0.0 2.0 0.02 0.46 0.46 92 1012.2
20260903172028 74 0.0 0.0 0.03 0.46 0.46 92 1012.6
20260903171024 73 88 0.0 1.0 0.05 0.46 0.46 92 1012.6
20260903170020 72 288 1.0 3.0 0.09 0.46 0.46 92 1013.1
20260903165031 72 218 2.0 4.0 0.11 0.46 0.46 92 1013.0
20260903164024 71 153 0.0 1.0 0.11 0.46 0.46 92 1012.5
20260903163019 71 110 1.0 3.0 0.11 0.45 0.45 92 1013.3
20260903162032 71 176 1.0 3.0 0.11 0.43 0.43 92 1013.5
20260903161025 71 135 1.0 3.0 0.14 0.42 0.42 92 1013.4
20260903160019 72 96 1.0 2.0 0.11 0.37 0.37 92 1013.1
20260903155033 71 297 1.0 3.0 0.09 0.35 0.35 92 1012.8
20260903154021 71 257 1.0 3.0 0.09 0.35 0.35 92 1012.4
20260903153038 71 103 2.0 6.0 0.08 0.33 0.33 92 1012.8
20260903152031 71 122 2.0 3.0 0.08 0.33 0.33 92 1013.6
20260903151022 71 254 0.0 2.0 0.04 0.28 0.28 92 1013.8
20260903150033 71 210 3.0 6.0 0.03 0.26 0.26 92 1013.0
20260903145025 71 146 1.0 2.0 0.04 0.26 0.26 92 1012.7
20260903144039 71 211 3.0 8.0 0.05 0.26 0.26 92 1012.7
20260903143049 71 212 2.0 6.0 0.07 0.25 0.25 92 1012.4
20260903142025 71 85 2.0 3.0 0.09 0.25 0.25 92 1013.1
20260903141020 70 64 1.0 4.0 0.10 0.24 0.24 92 1012.2
20260903140032 70 72 3.0 6.0 0.11 0.24 0.24 92 1013.0
20260903135024 70 70 2.0 4.0 0.13 0.22 0.22 92 1014.0
20260903134021 70 174 1.0 3.0 0.13 0.21 0.21 92 1014.7
20260903133017 70 187 3.0 7.0 0.11 0.18 0.18 92 1014.6
20260903132032 70 196 2.0 6.0 0.10 0.16 0.16 92 1014.7
20260903131029 70 111 1.0 2.0 0.08 0.14 0.14 92 1014.2
20260903130026 70 192 1.0 3.0 0.06 0.12 0.12 92 1014.0
20260903125021 69 181 1.0 3.0 0.04 0.10 0.10 92 1013.8
20260903124157 69 86 1.0 2.0 0.08 0.08 0.08 91 1013.3
20260903123033 68 0.0 0.0 0.07 0.07 0.07 91 1013.1
20260903122029 68 122 0.0 2.0 0.06 0.06 0.06 91 1013.2
20260903121024 68 113 1.0 2.0 0.06 0.06 0.06 91 1012.9
20260903120020 68 92 2.0 4.0 0.06 0.06 0.06 91 1012.8
20260903115019 68 74 2.0 4.0 0.06 0.06 0.06 91 1012.9
20260903114035 67 0.0 0.0 0.00 0.00 0.00 91 1012.9
20260903113030 67 0.0 0.0 0.00 0.00 0.00 91 1012.4
20260903112028 67 0.0 0.0 0.00 0.00 0.00 91 1011.9
20260903111022 67 0.0 0.0 0.00 0.00 0.00 91 1011.7
20260903110039 66 0.0 0.0 0.00 0.00 0.00 91 1011.9
20260903105036 66 0.0 0.0 0.00 0.00 0.00 91 1011.7
20260903104032 66 0.0 0.0 0.00 0.00 0.00 91 1011.5
20260903103028 66 0.0 0.0 0.00 0.00 0.00 91 1011.5
20260903102025 66 0.0 0.0 0.00 0.00 0.00 91 1011.5
20260903101021 65 0.0 0.0 0.00 0.00 0.00 91 1011.4
20260903100017 65 0.0 0.0 0.00 0.00 0.00 91 1011.4
20260903095055 65 0.0 0.0 0.00 0.00 0.00 90 1011.4
20260903094030 65 0.0 0.0 0.00 0.00 0.00 90 1011.4
20260903093047 65 0.0 0.0 0.00 0.00 0.00 90 1011.2
20260903092025 65 0.0 0.0 0.00 0.00 0.00 90 1011.4
20260903091019 65 0.0 0.0 0.00 0.00 0.00 90 1011.3
20260903090035 65 0.0 0.0 0.00 0.00 0.00 90 1011.4
20260903085032 65 0.0 0.0 0.00 0.00 0.00 90 1011.4
20260903084028 65 0.0 0.0 0.00 0.00 0.00 90 1011.5
20260903083025 64 0.0 0.0 0.00 0.00 0.00 90 1011.4
20260903082102 64 0.0 0.0 0.00 0.00 0.00 90 1011.4
20260903081018 64 0.0 0.0 0.00 0.00 0.00 90 1011.3
20260903080035 64 0.0 0.0 0.00 0.00 0.00 90 1011.3
20260903075031 64 0.0 0.0 0.00 0.00 0.00 90 1011.3
20260903074028 64 0.0 0.0 0.00 0.00 0.00 90 1011.4
20260903073024 64 0.0 0.0 0.00 0.00 0.00 90 1011.6
20260903072021 65 0.0 0.0 0.00 0.00 0.00 90 1011.6
20260903071035 65 0.0 0.0 0.00 0.00 0.00 90 1011.8
20260903070041 65 0.0 0.0 0.00 0.00 0.00 89 1011.8
20260903065023 65 0.0 0.0 0.00 0.00 0.00 89 1012.0
20260903064019 65 0.0 0.0 0.00 0.00 0.00 89 1012.0
20260903063036 66 0.0 0.0 0.00 0.00 0.00 89 1012.0
20260903062032 66 0.0 0.0 0.00 0.00 0.00 89 1012.1
20260903061028 66 0.0 0.0 0.00 0.00 0.00 89 1012.1
20260903060024 66 0.0 0.0 0.00 0.00 0.00 89 1012.2
20260903055020 65 0.0 0.0 0.00 0.00 0.00 89 1012.2
20260903054017 65 0.0 0.0 0.00 0.00 0.00 89 1012.3
20260903053034 65 0.0 0.0 0.00 0.00 0.00 89 1012.3
20260903052031 64 0.0 0.0 0.00 0.00 0.00 89 1012.3
20260903051027 64 0.0 0.0 0.00 0.00 0.00 88 1012.4
20260903050023 64 0.0 0.0 0.00 0.00 0.00 88 1012.4
20260903045020 64 0.0 0.0 0.00 0.00 0.00 88 1012.3
20260903044016 65 0.0 0.0 0.00 0.00 0.00 88 1012.3
20260903043033 65 0.0 0.0 0.00 0.00 0.00 88 1012.5
20260903042050 65 0.0 0.0 0.00 0.00 0.00 88 1012.3
20260903041046 65 0.0 0.0 0.00 0.00 0.00 88 1012.4
20260903040022 65 0.0 0.0 0.00 0.00 0.00 88 1012.5
20260903035018 65 0.0 0.0 0.00 0.00 0.00 87 1012.5
20260903034036 66 0.0 0.0 0.00 0.00 0.00 87 1012.5
20260903033030 66 0.0 0.0 0.00 0.00 0.00 87 1012.6
20260903032046 66 0.0 0.0 0.00 0.00 0.00 87 1012.6
20260903031023 67 0.0 0.0 0.00 0.00 0.00 87 1012.5
20260903030020 67 0.0 0.0 0.00 0.00 0.00 87 1012.5
20260903025016 67 0.0 0.0 0.00 0.00 0.00 86 1012.5
20260903024033 68 0.0 0.0 0.00 0.00 0.00 86 1012.5
20260903023029 68 0.0 0.0 0.00 0.00 0.00 86 1012.4
20260903022028 68 0.0 0.0 0.00 0.00 0.00 86 1012.2
20260903021023 68 0.0 0.0 0.00 0.00 0.00 85 1012.1
20260903020020 69 0.0 0.0 0.00 0.00 0.00 85 1012.1
20260903015016 69 0.0 0.0 0.00 0.00 0.00 85 1011.9
20260903014033 70 106 1.0 2.0 0.00 0.00 0.00 84 1011.9
20260903013029 71 106 1.0 1.0 0.00 0.00 0.00 84 1011.7
20260903012026 71 106 1.0 2.0 0.00 0.00 0.00 84 1011.7
20260903011041 72 0.0 0.0 0.00 0.00 0.00 83 1011.7
20260903010017 73 106 1.0 2.0 0.00 0.00 0.00 83 1011.6
20260903005052 74 106 1.0 2.0 0.00 0.00 0.00 82 1011.7